カタログに戻る

SL-12 R/B(2)

運用中GEO
NORAD 14117·ROCKET BODY·🇷🇺 Russia

打ち上げ Feb 5, 1982 から Baikonur Cosmodrome

Loading…

TLE

最新Source: Space-Track

元期: Sep 14, 2026, 18:58 UTC

1 14117U 82009F   26257.79070101  .00000111  00000-0  00000-0 0  9993
2 14117   6.2492 293.1069 0037312 202.7711 151.2155  1.00979520124331

AllMySatでSL-12 R/B(2)をリアルタイム追跡

Download on the App Store